Regional Weather Roundup
Issued by NWS

Home | Current Version | Previous Version | Graphics & Text | Print | Product List | Glossary On
Versions: 1 2 3 4 5 6 7 8 9 10 11 12 13 14 15 16 17 18 19 20 21 22 23 24 25 26 27 28 29 30 31 32 33 34 35 36 37 38 39 40 41 42 43 44 45 46 47 48 49 50
000
ASUS44 KMEG 261300
RWRTN
TENNESSEE HOURLY STATE WEATHER ROUNDUP
NATIONAL WEATHER SERVICE MEMPHIS TN
700 AM CST WED NOV 26 2014

TNZ002-004-019-021-049-052-054-088>092-261400-
WEST TENNESSEE

CITY           SKY/WX    TMP DP  RH WIND       PRES   REMARKS
MEMPHIS INTL   PTCLDY    32  25  75 S3        30.14S
NWS MEMPHIS      N/A     28 N/A N/A MISG        N/A
JACKSON        PTCLDY    24  22  91 CALM      30.14F
DYERSBURG      PTCLDY    28  18  64 SE5       30.14F WCI  23
UNION CITY     CLEAR     21  21 100 CALM      30.12F
PARIS            N/A     23  21  93 CALM      30.13F
LEXINGTON      CLEAR     21  19  93 CALM      30.13S
SAVANNAH       CLEAR     21  21 100 CALM      30.16R
$$

TNZ008-025-027-028-033-062-065-066-261400-
NORTH MIDDLE TENNESSEE

CITY           SKY/WX    TMP DP  RH WIND       PRES   REMARKS
NASHVILLE      PTCLDY    29  27  92 CALM      30.14S
CLARKSVILLE    CLEAR     23  21  92 CALM      30.15R FOG
COOKEVILLE     CLEAR     27  25  93 CALM      30.09R
CROSSVILLE     CLEAR     33  26  75 NW6       30.06R WCI  28
$$

TNZ061-075-076-078-094-096-097-261400-
SOUTH MIDDLE TENNESSEE

CITY           SKY/WX    TMP DP  RH WIND       PRES   REMARKS
TULLAHOMA      CLEAR     27  23  86 W3        30.12R
WINCHESTER     CLEAR     27  25  93 CALM      30.12R
SHELBYVILLE    CLEAR     25  25 100 SE6G200   30.15R WCI  18
$$

TNZ017-018-042-046-047-261400-
NORTHEAST TENNESSEE

CITY           SKY/WX    TMP DP  RH WIND       PRES   REMARKS
TRI CITIES     LGT RAIN  40  38  93 NE3       30.01R
ELIZABETHTON   RAIN      37  37 100 CALM      30.01R FOG
$$

TNZ012-013-036-069-073-074-261400-
CENTRAL EAST TENNESSEE

CITY           SKY/WX    TMP DP  RH WIND       PRES   REMARKS
KNOXVILLE      PTCLDY    39  31  72 SW6       30.03R WCI  35
OAK RIDGE      PTCLDY    40  31  70 CALM      30.05R
GATLINBURG     SUNNY     39  28  65 W5        30.02R
$$

TNZ083-085-099-261400-
SOUTHEAST TENNESSEE

CITY           SKY/WX    TMP DP  RH WIND       PRES   REMARKS
CHATTANOOGA    PTCLDY    40  28  62 W7        30.10R
$$

SKY/WX REPORTED AS FAIR MEANS FEW OR NO CLOUDS BELOW
12 THOUSAND FEET.




USA.gov is the U.S. government's official web portal to all federal, state and local government web resources and services.